Creek Data

    Home     View Charts     View Raw Data     Messages

ID Distance Battery Voltage Battery Current Internal Temp Internal Humidity External Temp Solar Input rssi snr Time Stamp Record
32734 13.2 3.81 0 61 35 56 5.1 -80 6 02/18/2025 11:15 AM 14406
32733 13.2 3.73 0 59 35 55 5.1 -81 8 02/18/2025 11:00 AM 14405
32732 13.2 3.73 0 58 35 54 5.1 -79 8 02/18/2025 10:45 AM 14404
32731 13.2 3.97 0 57 35 55 5.1 -79 8 02/18/2025 10:30 AM 14403
32730 13.2 3.73 0 55 35 54 5.1 -81 8 02/18/2025 10:15 AM 14402
32729 13.2 3.73 0 53 35 53 5.1 -79 8 02/18/2025 10:00 AM 14401
32728 13.1 3.73 0 52 36 52 5.1 -80 7 02/18/2025 09:45 AM 14400
32727 13.2 3.74 0 51 35 52 5.1 -79 7 02/18/2025 09:30 AM 14399
32726 13.2 3.74 0 50 35 51 5.1 -80 7 02/18/2025 09:15 AM 14398
32725 13.2 3.74 0 49 35 51 5.1 -81 8 02/18/2025 09:00 AM 14397
32724 13.1 3.81 0 48 35 51 5.1 -81 5 02/18/2025 08:45 AM 14396
32723 13.1 3.75 0 47 35 51 5.1 -83 7 02/18/2025 08:30 AM 14395
32722 13.0 3.76 0 45 35 48 5.1 -84 8 02/18/2025 08:15 AM 14394
32721 13.0 3.93 72 44 36 47 4.5 -84 8 02/18/2025 08:00 AM 14393
32720 13.0 3.92 25 42 36 44 4.5 -82 8 02/18/2025 07:45 AM 14392
32719 13.0 3.80 14 41 36 43 4.5 -82 8 02/18/2025 07:30 AM 14391
32718 13.0 3.81 10 40 37 42 4.5 -81 8 02/18/2025 07:15 AM 14390
32717 13.0 3.62 0 39 37 42 4.5 -82 8 02/18/2025 07:00 AM 14389
32716 13.0 3.72 -6 39 38 42 4 -83 8 02/18/2025 06:45 AM 14388
32715 13.0 3.77 -5 40 37 41 0.3 -81 8 02/18/2025 06:30 AM 14387
32714 13.0 3.73 -5 39 38 42 0.1 -83 8 02/18/2025 06:15 AM 14386
32713 13.0 3.73 -5 39 38 41 0 -81 8 02/18/2025 06:00 AM 14385
32712 12.9 3.73 -5 39 38 42 0.1 -81 8 02/18/2025 05:45 AM 14384
32711 12.9 3.73 -5 40 37 41 0 -81 8 02/18/2025 05:30 AM 14383
32710 13.0 3.73 -5 40 37 42 0 -81 8 02/18/2025 05:15 AM 14382